SWA169 KLAS-KPHX

Flight info

Callsign SWA169
Flight time 0h 45m
Altitude 29000
Route RASLR3 ZAYNE WOTRO BRUSR1
Aircraft B38M/M-SDE1FGHILORVWXY/HB1

Departure

Time 2026-04-30 19:41
Airport Harry Reid International Airport (KLAS)

Arrival

Time 2026-04-30 20:26
Airport Phoenix Sky Harbor International Airport (KPHX)
Time Latitude Longitude Altitude Speed Heading
2026-04-30 19:28 36.08257 -115.15349 2120 ft 0 kts 66°
2026-04-30 19:30 36.08253 -115.15362 2121 ft 3 kts 66°
2026-04-30 19:31 36.08238 -115.15403 2123 ft 3 kts 70°
2026-04-30 19:31 36.08235 -115.15424 2126 ft 3 kts 109°
2026-04-30 19:31 36.08258 -115.15449 2126 ft 1 kts 155°
2026-04-30 19:32 36.08262 -115.15451 2125 ft 0 kts 155°
2026-04-30 19:35 36.08261 -115.15450 2125 ft 1 kts 155°
2026-04-30 19:35 36.08252 -115.15446 2127 ft 2 kts 155°
2026-04-30 19:35 36.08236 -115.15436 2128 ft 4 kts 155°
2026-04-30 19:35 36.08200 -115.15425 2126 ft 7 kts 173°
2026-04-30 19:36 36.08156 -115.15430 2130 ft 6 kts 189°
2026-04-30 19:36 36.08113 -115.15441 2134 ft 6 kts 196°
2026-04-30 19:36 36.07981 -115.15390 2138 ft 16 kts 153°
2026-04-30 19:37 36.07871 -115.15328 2140 ft 15 kts 163°
2026-04-30 19:37 36.07806 -115.15363 2143 ft 10 kts 259°
2026-04-30 19:37 36.07805 -115.15466 2145 ft 15 kts 270°
2026-04-30 19:37 36.07804 -115.15625 2146 ft 22 kts 270°
2026-04-30 19:38 36.07803 -115.15796 2150 ft 14 kts 270°
2026-04-30 19:38 36.07804 -115.15937 2153 ft 19 kts 271°
2026-04-30 19:38 36.07805 -115.16126 2154 ft 22 kts 270°
2026-04-30 19:38 36.07785 -115.16308 2152 ft 21 kts 230°
2026-04-30 19:39 36.07646 -115.16400 2164 ft 25 kts 205°
2026-04-30 19:39 36.07489 -115.16490 2166 ft 25 kts 205°
2026-04-30 19:39 36.07389 -115.16606 2167 ft 11 kts 275°
2026-04-30 19:39 36.07424 -115.16703 2162 ft 13 kts 304°
2026-04-30 19:40 36.07519 -115.16699 2159 ft 19 kts 29°
2026-04-30 19:40 36.07688 -115.16600 2155 ft 49 kts 25°
2026-04-30 19:40 36.08254 -115.16276 2134 ft 126 kts 25°
2026-04-30 19:40 36.09226 -115.15710 2249 ft 173 kts 25°
2026-04-30 19:41 36.10346 -115.15046 2922 ft 184 kts 24°
2026-04-30 19:41 36.11496 -115.14382 3796 ft 185 kts 23°
2026-04-30 19:41 36.12561 -115.13364 4394 ft 211 kts 58°
2026-04-30 19:41 36.12949 -115.11533 5045 ft 233 kts 87°
2026-04-30 19:42 36.13104 -115.09454 5793 ft 253 kts 83°
2026-04-30 19:42 36.13323 -115.07208 6560 ft 272 kts 83°
2026-04-30 19:42 36.13552 -115.04848 7417 ft 284 kts 83°
2026-04-30 19:42 36.13788 -115.02419 8555 ft 286 kts 83°
2026-04-30 19:43 36.14026 -114.99943 9562 ft 292 kts 83°
2026-04-30 19:43 36.14268 -114.97429 10571 ft 297 kts 83°
2026-04-30 19:43 36.14522 -114.94877 11561 ft 301 kts 83°
2026-04-30 19:44 36.15049 -114.89660 13488 ft 310 kts 83°
2026-04-30 19:44 36.15071 -114.86990 14392 ft 313 kts 102°
2026-04-30 19:44 36.14483 -114.84406 15318 ft 317 kts 106°
2026-04-30 19:44 36.13886 -114.81747 16145 ft 322 kts 106°
2026-04-30 19:45 36.13274 -114.79064 16995 ft 327 kts 107°
2026-04-30 19:45 36.12332 -114.76445 17452 ft 343 kts 126°
2026-04-30 19:45 36.10602 -114.74365 17957 ft 354 kts 146°
2026-04-30 19:45 36.08511 -114.72671 18535 ft 363 kts 147°
2026-04-30 19:46 36.06395 -114.70950 19310 ft 366 kts 147°
2026-04-30 19:46 36.04244 -114.69221 20002 ft 372 kts 148°
2026-04-30 19:46 36.02060 -114.67476 20705 ft 375 kts 148°
2026-04-30 19:46 35.99856 -114.65720 21369 ft 380 kts 148°
2026-04-30 19:47 35.97622 -114.63944 22015 ft 384 kts 148°
2026-04-30 19:47 35.96140 -114.62767 22436 ft 386 kts 148°
2026-04-30 19:47 35.93098 -114.60352 23252 ft 391 kts 148°
2026-04-30 19:47 35.90796 -114.58526 23841 ft 396 kts 148°
2026-04-30 19:48 35.88474 -114.56686 24446 ft 398 kts 148°
2026-04-30 19:48 35.86134 -114.54832 25001 ft 401 kts 148°
2026-04-30 19:48 35.83776 -114.52966 25557 ft 405 kts 148°
2026-04-30 19:48 35.81392 -114.51080 26059 ft 408 kts 148°
2026-04-30 19:49 35.78994 -114.49185 26564 ft 411 kts 148°
2026-04-30 19:49 35.74144 -114.45356 27524 ft 418 kts 148°
2026-04-30 19:49 35.71688 -114.43417 27980 ft 421 kts 147°
2026-04-30 19:50 35.69432 -114.41117 28414 ft 425 kts 131°
2026-04-30 19:50 35.67662 -114.38261 28817 ft 429 kts 127°
2026-04-30 19:50 35.65858 -114.35337 28930 ft 428 kts 127°
2026-04-30 19:50 35.64069 -114.32406 29002 ft 428 kts 127°
2026-04-30 19:51 35.60524 -114.26544 29000 ft 427 kts 127°
2026-04-30 19:51 35.56985 -114.20685 28998 ft 429 kts 127°
2026-04-30 19:52 35.53427 -114.14801 28998 ft 429 kts 127°
2026-04-30 19:52 35.49875 -114.08937 28998 ft 427 kts 127°
2026-04-30 19:53 35.46332 -114.03098 28999 ft 426 kts 127°
2026-04-30 19:53 35.42798 -113.97283 28998 ft 426 kts 127°
2026-04-30 19:54 35.39251 -113.91456 28999 ft 426 kts 127°
2026-04-30 19:54 35.35700 -113.85633 29000 ft 426 kts 127°
2026-04-30 19:55 35.32138 -113.79803 29000 ft 428 kts 127°
2026-04-30 19:55 35.28570 -113.73971 29003 ft 429 kts 127°
2026-04-30 19:56 35.24994 -113.68134 28999 ft 428 kts 127°
2026-04-30 19:56 35.23423 -113.65053 28977 ft 427 kts 113°
2026-04-30 19:56 35.22571 -113.61576 29010 ft 428 kts 103°
2026-04-30 19:57 35.21169 -113.54497 29000 ft 429 kts 103°
2026-04-30 19:57 35.19810 -113.47424 28999 ft 430 kts 103°
2026-04-30 19:58 35.18457 -113.40324 29001 ft 430 kts 103°
2026-04-30 19:58 35.17038 -113.33221 28991 ft 430 kts 110°
2026-04-30 19:59 35.15665 -113.29990 29002 ft 428 kts 124°
2026-04-30 19:59 35.14019 -113.26952 28987 ft 429 kts 123°
2026-04-30 20:00 35.09093 -113.17829 28999 ft 430 kts 124°
2026-04-30 20:00 35.05761 -113.11773 28997 ft 430 kts 124°
2026-04-30 20:01 35.00741 -113.02693 29001 ft 430 kts 124°
2026-04-30 20:01 34.97386 -112.96636 29001 ft 432 kts 124°
2026-04-30 20:02 34.92339 -112.87544 29000 ft 431 kts 124°
2026-04-30 20:03 34.87325 -112.78535 28999 ft 430 kts 124°
2026-04-30 20:03 34.83969 -112.72517 28999 ft 429 kts 124°
2026-04-30 20:04 34.80623 -112.66528 29001 ft 428 kts 124°
2026-04-30 20:05 34.75589 -112.57537 29001 ft 429 kts 124°
2026-04-30 20:05 34.70574 -112.48674 28607 ft 411 kts 130°
2026-04-30 20:06 34.68505 -112.46339 28256 ft 404 kts 144°
2026-04-30 20:06 34.66320 -112.44234 27876 ft 399 kts 141°
2026-04-30 20:06 34.64183 -112.42107 27369 ft 398 kts 141°
2026-04-30 20:06 34.62036 -112.39993 26874 ft 398 kts 142°
2026-04-30 20:07 34.59887 -112.37887 26363 ft 397 kts 142°
2026-04-30 20:07 34.57740 -112.35788 25863 ft 396 kts 142°
2026-04-30 20:07 34.53478 -112.31628 24872 ft 395 kts 142°
2026-04-30 20:08 34.51340 -112.29543 24365 ft 394 kts 142°
2026-04-30 20:08 34.49178 -112.27437 23855 ft 393 kts 142°
2026-04-30 20:08 34.47054 -112.25369 23367 ft 392 kts 142°
2026-04-30 20:08 34.44821 -112.23514 22802 ft 391 kts 155°
2026-04-30 20:09 34.42281 -112.22527 22294 ft 388 kts 168°
2026-04-30 20:09 34.39628 -112.21788 21873 ft 385 kts 168°
2026-04-30 20:09 34.34479 -112.20399 20903 ft 383 kts 168°
2026-04-30 20:10 34.29202 -112.19023 19667 ft 386 kts 169°
2026-04-30 20:10 34.26591 -112.18346 19243 ft 379 kts 169°
2026-04-30 20:10 34.24066 -112.17693 18846 ft 363 kts 169°
2026-04-30 20:11 34.19303 -112.16463 18070 ft 344 kts 169°
2026-04-30 20:11 34.16955 -112.15857 17672 ft 347 kts 169°
2026-04-30 20:11 34.14598 -112.15249 17483 ft 342 kts 169°
2026-04-30 20:12 34.10058 -112.14079 17112 ft 326 kts 169°
2026-04-30 20:12 34.07778 -112.13812 16329 ft 335 kts 186°
2026-04-30 20:12 34.05460 -112.14092 15804 ft 337 kts 186°
2026-04-30 20:13 34.03136 -112.14335 15234 ft 333 kts 186°
2026-04-30 20:13 34.00843 -112.14584 14634 ft 327 kts 186°
2026-04-30 20:13 33.98596 -112.14832 14024 ft 322 kts 186°
2026-04-30 20:13 33.96388 -112.15077 13423 ft 318 kts 186°
2026-04-30 20:14 33.94204 -112.15321 12824 ft 313 kts 186°
2026-04-30 20:14 33.92770 -112.15481 12432 ft 311 kts 186°
2026-04-30 20:14 33.89936 -112.15911 11709 ft 302 kts 192°
2026-04-30 20:14 33.87904 -112.16359 11377 ft 294 kts 191°
2026-04-30 20:15 33.86567 -112.16647 11176 ft 294 kts 191°
2026-04-30 20:15 33.84544 -112.17075 10846 ft 296 kts 191°
2026-04-30 20:15 33.82510 -112.17501 10470 ft 296 kts 191°
2026-04-30 20:15 33.79886 -112.18046 9970 ft 282 kts 191°
2026-04-30 20:16 33.78595 -112.18313 9735 ft 276 kts 191°
2026-04-30 20:16 33.76138 -112.18821 9277 ft 264 kts 191°
2026-04-30 20:16 33.74937 -112.19071 9049 ft 260 kts 191°
2026-04-30 20:16 33.73161 -112.19447 8674 ft 254 kts 191°
2026-04-30 20:17 33.71456 -112.19807 8359 ft 246 kts 191°
2026-04-30 20:17 33.69800 -112.20157 8049 ft 239 kts 191°
2026-04-30 20:17 33.68184 -112.20498 7749 ft 234 kts 191°
2026-04-30 20:17 33.66594 -112.20833 7444 ft 235 kts 191°
2026-04-30 20:18 33.64989 -112.21172 7128 ft 234 kts 191°
2026-04-30 20:18 33.63390 -112.21509 6844 ft 233 kts 191°
2026-04-30 20:18 33.61796 -112.21845 6548 ft 232 kts 191°
2026-04-30 20:18 33.60209 -112.22179 6266 ft 231 kts 191°
2026-04-30 20:19 33.58636 -112.22513 5996 ft 229 kts 192°
2026-04-30 20:19 33.57067 -112.22852 5784 ft 229 kts 191°
2026-04-30 20:19 33.55502 -112.23189 5577 ft 228 kts 192°
2026-04-30 20:19 33.53946 -112.23524 5411 ft 226 kts 192°
2026-04-30 20:20 33.52413 -112.23853 5255 ft 223 kts 192°
2026-04-30 20:20 33.50909 -112.24176 5108 ft 215 kts 192°
2026-04-30 20:20 33.49458 -112.24487 4917 ft 209 kts 192°
2026-04-30 20:20 33.48049 -112.24790 4713 ft 204 kts 192°
2026-04-30 20:21 33.46651 -112.24824 4499 ft 202 kts 165°
2026-04-30 20:21 33.45478 -112.23945 4270 ft 200 kts 131°
2026-04-30 20:21 33.44726 -112.22590 4137 ft 197 kts 122°
2026-04-30 20:21 33.44173 -112.21066 3982 ft 200 kts 101°
2026-04-30 20:22 33.44090 -112.19430 3761 ft 200 kts 89°
2026-04-30 20:22 33.44106 -112.17775 3557 ft 197 kts 90°
2026-04-30 20:22 33.44108 -112.16151 3306 ft 191 kts 90°
2026-04-30 20:22 33.44105 -112.14594 3048 ft 184 kts 90°
2026-04-30 20:23 33.44103 -112.13120 2839 ft 169 kts 90°
2026-04-30 20:23 33.44101 -112.11786 2631 ft 155 kts 90°
2026-04-30 20:23 33.44098 -112.10503 2410 ft 153 kts 90°
2026-04-30 20:23 33.44097 -112.09228 2207 ft 153 kts 90°
2026-04-30 20:24 33.44095 -112.07956 2009 ft 153 kts 90°
2026-04-30 20:24 33.44082 -112.06684 1783 ft 152 kts 91°
2026-04-30 20:24 33.44086 -112.05427 1624 ft 151 kts 89°
2026-04-30 20:24 33.44080 -112.04176 1433 ft 150 kts 89°
2026-04-30 20:25 33.44084 -112.01739 1133 ft 133 kts 90°
2026-04-30 20:25 33.44085 -112.00860 1131 ft 72 kts 90°
2026-04-30 20:26 33.44015 -112.00439 1129 ft 9 kts 135°
2026-04-30 20:26 33.43942 -112.00381 1121 ft 5 kts 170°
2026-04-30 20:26 33.43909 -112.00352 1118 ft 8 kts 110°
2026-04-30 20:27 33.43903 -112.00175 1128 ft 14 kts 91°
2026-04-30 20:27 33.43857 -112.00077 1124 ft 2 kts 175°
2026-04-30 20:28 33.43802 -112.00084 1127 ft 3 kts 230°
2026-04-30 20:28 33.43797 -112.00114 1127 ft 2 kts 265°
2026-04-30 20:29 33.43797 -112.00122 1127 ft 0 kts 267°